Weather History for Learmonth, WE

Change the Weather History Date:

Tuesday, February 5, 2013

  Actual Average Record
Temperature  
Mean Temperature 96 °F -  
Max Temperature 110 °F 96 °F 110 °F (2013)
Min Temperature 81 °F 73 °F 69 °F (1997)
Cooling Degree Days 30    
Growing Degree Days 46 (Base 50)    
Moisture  
Dew Point 50 °F    
Average Humidity 26    
Maximum Humidity 62    
Minimum Humidity 4    
Precipitation  
Precipitation 0.00 in 0.03 in - ()
Sea Level Pressure  
Sea Level Pressure 29.83 in    
Wind  
Wind Speed 9 mph ()    
Max Wind Speed 18 mph    
Max Gust Speed -    
Visibility 6.7 miles    
Events      
Averages and records for this station are not official NWS values.
T = Trace of Precipitation, MM = Missing Value Source: Averaged Metar Reports

Daily Weather History Graph

Daily Weather History Graph

Search for Another Location

Airport:

Trip Planner

Search our weather history database for the weather conditions in past years. The results will help you decide how hot, cold, wet, or windy it might be!

Date:

Astronomy

Feb. 05, 2013 Rise Set
Actual Time 6:06 AM WST 7:07 PM WST
Civil Twilight 5:43 AM WST 7:31 PM WST
Nautical Twilight 5:15 AM WST 7:59 PM WST
Astronomical Twilight 4:46 AM WST 8:27 PM WST
Moon 12:45 AM WST (2/5) 2:24 PM WST (2/5)
Length of Visible Light 13h 48m
Length of Day
13h 01m
Waning Crescent, 32% of the Moon is Illuminated
Feb 5
Waning Crescent
Feb 10
New
Feb 18
First Quarter
Feb 26
Full
Mar 5
Last Quarter

Hourly Weather History & Observations

Time (WST) Temp. Heat Index Dew Point Humidity Pressure Visibility Wind Dir Wind Speed Gust Speed Precip Events Conditions
12:00 AM 86 °F - 58 °F 28% 29.88 in - SW 6.9 mph - -  
12:00 AM 86.0 °F 84.9 °F 57.2 °F 37% 29.86 in 6.2 mi SW 6.9 mph - N/A   Unknown
12:30 AM 86.0 °F 84.9 °F 57.2 °F 37% 29.86 in 6.2 mi SW 8.1 mph - N/A   Unknown
1:00 AM 86.0 °F 86.6 °F 62.6 °F 45% 29.86 in 6.2 mi SW 8.1 mph - N/A   Unknown
1:30 AM 86.0 °F 86.6 °F 62.6 °F 45% 29.83 in 6.2 mi WSW 8.1 mph - N/A   Unknown
2:00 AM 86 °F - 69 °F 47% 29.85 in - SW 8.1 mph - -  
2:00 AM 86.0 °F 89.4 °F 68.0 °F 55% 29.83 in 6.2 mi SW 8.1 mph - N/A   Unknown
2:30 AM 84.2 °F 88.4 °F 69.8 °F 62% 29.83 in 6.2 mi SSW 8.1 mph - N/A   Unknown
3:00 AM 85 °F - 71 °F 54% 29.84 in - SW 9.2 mph - -  
3:00 AM 86.0 °F 91.8 °F 71.6 °F 62% 29.83 in 6.2 mi SW 9.2 mph - N/A   Unknown
3:30 AM 84.2 °F 88.4 °F 69.8 °F 62% 29.83 in 6.2 mi SW 8.1 mph - N/A   Unknown
4:00 AM 84.2 °F 87.3 °F 68.0 °F 58% 29.83 in 6.2 mi SW 6.9 mph - N/A   Unknown
4:30 AM 82.4 °F 84.6 °F 66.2 °F 58% 29.83 in 6.2 mi SW 6.9 mph - N/A   Unknown
5:00 AM 82 °F - 64 °F 45% 29.85 in - SW 6.9 mph - -  
5:00 AM 82.4 °F 83.9 °F 64.4 °F 54% 29.83 in 6.2 mi SW 6.9 mph - N/A   Unknown
5:30 AM 82.4 °F 83.9 °F 64.4 °F 54% 29.83 in 6.2 mi SW 6.9 mph - N/A   Unknown
6:00 AM 82 °F - 63 °F 43% 29.85 in 11 mi SW 8.1 mph - -   Partly Cloudy
6:00 AM 82.4 °F 83.4 °F 62.6 °F 51% 29.83 in - SW 8.1 mph - N/A   Clear
6:30 AM 82.4 °F 83.4 °F 62.6 °F 51% 29.86 in - SW 8.1 mph - N/A   Clear
7:00 AM 87.8 °F 87.6 °F 60.8 °F 40% 29.86 in - SW 9.2 mph - N/A   Clear
7:30 AM 89.6 °F 88.1 °F 57.2 °F 33% 29.86 in - SSW 11.5 mph - N/A   Clear
8:00 AM 94 °F - 45 °F 11% 29.87 in - South 11.5 mph - -  
8:00 AM 95.0 °F - 44.6 °F 18% 29.86 in - South 11.5 mph - N/A   Clear
8:30 AM 96.8 °F - 41.0 °F 15% 29.86 in - SSW 12.7 mph - N/A   Clear
9:00 AM 99 °F - 35 °F 5% 29.88 in 11 mi South 9.2 mph - -   Partly Cloudy
9:00 AM 98.6 °F - 35.6 °F 11% 29.86 in - South 9.2 mph - N/A   Clear
9:30 AM 100.4 °F - 37.4 °F 11% 29.86 in - SSE 8.1 mph - N/A   Clear
10:00 AM 102.2 °F - 32.0 °F 9% 29.86 in - SE 6.9 mph - N/A   Clear
10:30 AM 104.0 °F - 30.2 °F 8% 29.86 in - ESE 6.9 mph - N/A   Clear
11:00 AM 103 °F - 40 °F 6% 29.86 in - East 6.9 mph - -  
11:00 AM 104.0 °F - 39.2 °F 11% 29.83 in - East 6.9 mph - N/A   Clear
11:30 AM 104.0 °F - 37.4 °F 10% 29.83 in - East 9.2 mph - N/A   Clear
12:00 PM 105 °F - 33 °F 4% 29.83 in 11 mi East 9.2 mph - -   Partly Cloudy
12:00 PM 104.0 °F - 32.0 °F 8% 29.83 in - East 9.2 mph - N/A   Clear
12:30 PM 104.0 °F - 33.8 °F 9% 29.83 in - East 8.1 mph - N/A   Clear
1:00 PM 105.8 °F - 32.0 °F 8% 29.80 in 6.2 mi ENE 9.2 mph - N/A   Dust Whirls
1:30 PM 105.8 °F - 33.8 °F 8% 29.80 in 6.2 mi ENE 10.4 mph - N/A   Scattered Clouds
2:00 PM 106 °F - 36 °F 4% 29.80 in - ENE 10.4 mph - -  
2:00 PM 105.8 °F - 35.6 °F 9% 29.77 in - ENE 10.4 mph - N/A   Clear
2:30 PM 107.6 °F - 35.6 °F 8% 29.77 in - NE 8.1 mph - N/A   Clear
3:00 PM 106 °F - 35 °F 4% 29.78 in 11 mi NNE 10.4 mph - -   Dust Whirls
3:00 PM 105.8 °F - 35.6 °F 9% 29.77 in 6.2 mi North 10.4 mph - N/A   Dust Whirls
3:30 PM 105.8 °F - 39.2 °F 10% 29.77 in 6.2 mi North 8.1 mph - N/A   Unknown
4:00 PM 109.4 °F - 44.6 °F 11% 29.77 in 6.2 mi North 6.9 mph - N/A   Unknown
4:30 PM 109.4 °F - 30.2 °F 6% 29.77 in 6.2 mi WSW 12.7 mph - N/A   Unknown
5:00 PM 109 °F - 33 °F 4% 29.77 in - WSW 15.0 mph - -  
5:00 PM 109.4 °F - 33.8 °F 7% 29.74 in 6.2 mi WSW 15.0 mph - N/A   Unknown
5:30 PM 105.8 °F - 35.6 °F 9% 29.77 in 6.2 mi WSW 18.4 mph - N/A   Unknown
6:00 PM 102 °F - 37 °F 5% 29.78 in - WSW 17.3 mph - -  
6:00 PM 102.2 °F - 37.4 °F 11% 29.77 in 6.2 mi WSW 17.3 mph - N/A   Unknown
6:30 PM 100.4 °F - 41.0 °F 13% 29.77 in 6.2 mi SW 16.1 mph - N/A   Unknown
7:00 PM 98.6 °F - 46.4 °F 17% 29.80 in 6.2 mi WSW 15.0 mph - N/A   Unknown
7:30 PM 96.8 °F - 46.4 °F 18% 29.80 in 6.2 mi SW 15.0 mph - N/A   Unknown
8:00 PM 94 °F - 52 °F 15% 29.83 in - SSW 15.0 mph - -  
8:00 PM 95.0 °F - 51.8 °F 23% 29.83 in 6.2 mi SSW 15.0 mph - N/A   Unknown
8:30 PM 91.4 °F 89.9 °F 57.2 °F 31% 29.83 in 6.2 mi SSW 10.4 mph - N/A   Unknown
9:00 PM 91 °F - 60 °F 26% 29.85 in - SSW 10.4 mph - -  
9:00 PM 91.4 °F 91.4 °F 60.8 °F 36% 29.83 in 6.2 mi SSW 10.4 mph - N/A   Unknown
9:30 PM 91.4 °F 89.9 °F 57.2 °F 31% 29.83 in 6.2 mi SSW 8.1 mph - N/A   Unknown
10:00 PM 91.4 °F 89.4 °F 55.4 °F 29% 29.86 in 6.2 mi SSW 8.1 mph - N/A   Unknown
10:30 PM 89.6 °F 91.1 °F 64.4 °F 43% 29.83 in 6.2 mi SSW 12.7 mph - N/A   Unknown
11:00 PM 90 °F - 60 °F 27% 29.85 in - SSW 15.0 mph - -  
11:00 PM 89.6 °F 89.5 °F 60.8 °F 38% 29.83 in 6.2 mi SSW 15.0 mph - N/A   Unknown
11:30 PM 87.8 °F 89.4 °F 64.4 °F 46% 29.83 in 6.2 mi SSW 11.5 mph - N/A   Unknown